Location: Melizzano
(41.1500°N, 14.5000°E)
Time: 20:41:24
(UTC+00:00)

Cosmos 2239 Rocket - Pass Details

Date: 11 May 2021
Orbit: 955 x 990 km, 82.9° (Epoch: 20 June)

Event Time Altitude Azimuth Distance (km) Brightness Sun altitude
Rises 23:05:02 0° 351° (N) 3,699 8.7 -30.7°
Reaches altitude 10° 23:07:33 10° 351° (N) 2,751 7.7 -30.7°
Enters shadow 23:13:36 81° 317° (NW) 1,005 4.4 -30.6°
